Location: Baia Mare
(47.6567°N, 23.5850°E)
Time: 08:08:48
(UTC+03:00)

ISS - Pass Details

Date: 28 May 2018
Orbit: 402 x 406 km, 51.6° (Epoch: 19 June)

Event Time Altitude Azimuth Distance (km) Brightness Sun altitude
Rises 23:35:35 0° 290° (WNW) 2,323 0.7 -16.7°
Reaches altitude 10° 23:37:43 10° 296° (WNW) 1,461 -0.3 -16.9°
Maximum altitude 23:40:54 47° 12° (NNE) 541 -2.9 -17.1°
Enters shadow 23:43:06 18° 82° (E) 1,085 -1.8 -17.2°
